When you browse on this site, cookies collect data to enhance your experience and personalize the content and advertising you see.
Visit our Privacy Policy to learn more. By continuing to use the site, you agree to this use of cookies and data.
  • In Hungary
  • List of Countries
  • For 7 days
  • Water Temperature
  • Satellite Maps
  • Weather Map
  • News
  • Weather Widgets
  • user-avatar
    Login

    Hourly Weather Canteleu

    Today, 19 March, Tuesday

    Time Temperature Precipitation Wind Pressure Humidity
    00:00 +4°C° 0 mm 1 mps 760 mmHg 93%
    01:00 +4°C° 0 mm 1 mps 760 mmHg 94%
    02:00 +4°C° 0 mm 1 mps 760 mmHg 95%
    03:00 +4°C° 0 mm 1 mps 761 mmHg 96%
    04:00 +4°C° 0 mm 1 mps 761 mmHg 96%
    05:00 +4°C° 0 mm 1 mps 761 mmHg 96%
    06:00 +3°C° 0 mm 1 mps 762 mmHg 95%
    07:00 +5°C° 0 mm 1 mps 762 mmHg 91%
    08:00 +6°C° 0 mm 2 mps 762 mmHg 86%
    09:00 +7°C° 0 mm 2 mps 763 mmHg 81%
    10:00 +9°C° 0 mm 2 mps 763 mmHg 76%
    11:00 +10°C° 0 mm 2 mps 763 mmHg 71%
    12:00 +12°C° 0 mm 2 mps 763 mmHg 66%
    13:00 +12°C° 0.1 mm 2 mps 763 mmHg 66%
    14:00 +12°C° 0.1 mm 2 mps 763 mmHg 66%
    15:00 +12°C° 0.1 mm 2 mps 763 mmHg 66%
    16:00 +10°C° 0 mm 2 mps 763 mmHg 71%
    17:00 +10°C° 0 mm 1 mps 763 mmHg 77%
    18:00 +9°C° 0 mm 1 mps 763 mmHg 82%
    19:00 +8°C° 0 mm 1 mps 764 mmHg 84%
    20:00 +7°C° 0 mm 0 mps 764 mmHg 86%
    21:00 +6°C° 0 mm 0 mps 765 mmHg 88%
    22:00 +5°C° 0 mm 0 mps 765 mmHg 89%
    23:00 +6°C° 0 mm 1 mps 765 mmHg 89%

    Tomorrow, 20 March, Wednesday

    Time Temperature Precipitation Wind Pressure Humidity
    00:00 +6°C° 0 mm 1 mps 765 mmHg 90%
    01:00 +6°C° 0 mm 1 mps 765 mmHg 91%
    02:00 +6°C° 0 mm 1 mps 765 mmHg 92%
    03:00 +6°C° 0 mm 1 mps 765 mmHg 92%
    04:00 +5°C° 0 mm 1 mps 766 mmHg 93%
    05:00 +5°C° 0 mm 1 mps 766 mmHg 94%
    06:00 +5°C° 0 mm 1 mps 766 mmHg 95%
    07:00 +7°C° 0 mm 1 mps 766 mmHg 91%
    08:00 +8°C° 0 mm 1 mps 767 mmHg 87%
    09:00 +10°C° 0 mm 1 mps 767 mmHg 83%
    10:00 +11°C° 0 mm 1 mps 767 mmHg 78%
    11:00 +12°C° 0 mm 1 mps 767 mmHg 73%
    12:00 +14°C° 0 mm 1 mps 767 mmHg 68%
    13:00 +14°C° 0 mm 1 mps 767 mmHg 69%
    14:00 +14°C° 0 mm 1 mps 767 mmHg 69%
    15:00 +14°C° 0 mm 1 mps 767 mmHg 69%
    16:00 +12°C° 0 mm 0 mps 767 mmHg 74%
    17:00 +11°C° 0 mm 0 mps 767 mmHg 79%
    18:00 +9°C° 0 mm 0 mps 767 mmHg 84%
    19:00 +9°C° 0 mm 0 mps 767 mmHg 85%
    20:00 +8°C° 0 mm 0 mps 767 mmHg 87%
    21:00 +7°C° 0 mm 0 mps 767 mmHg 89%
    22:00 +7°C° 0 mm 0 mps 767 mmHg 89%
    23:00 +7°C° 0 mm 0 mps 767 mmHg 90%

    Day after tomorrow, 21 March, Thursday

    Time Temperature Precipitation Wind Pressure Humidity
    00:00 +7°C° 0 mm 0 mps 767 mmHg 90%
    01:00 +6°C° 0 mm 0 mps 767 mmHg 91%
    02:00 +6°C° 0 mm 0 mps 767 mmHg 91%
    03:00 +6°C° 0 mm 0 mps 767 mmHg 91%
    04:00 +6°C° 0 mm 0 mps 767 mmHg 91%
    05:00 +6°C° 0 mm 0 mps 767 mmHg 91%
    06:00 +5°C° 0 mm 0 mps 767 mmHg 91%
    07:00 +7°C° 0 mm 0 mps 767 mmHg 86%
    08:00 +9°C° 0 mm 0 mps 767 mmHg 81%
    09:00 +11°C° 0 mm 0 mps 768 mmHg 76%
    10:00 +12°C° 0 mm 0 mps 767 mmHg 72%
    11:00 +15°C° 0 mm 1 mps 767 mmHg 67%
    12:00 +16°C° 0 mm 1 mps 767 mmHg 62%
    13:00 +16°C° 0 mm 1 mps 766 mmHg 62%
    14:00 +16°C° 0 mm 1 mps 766 mmHg 61%
    15:00 +17°C° 0 mm 2 mps 765 mmHg 61%
    16:00 +15°C° 0 mm 2 mps 765 mmHg 68%
    17:00 +14°C° 0 mm 2 mps 765 mmHg 75%
    18:00 +12°C° 0 mm 2 mps 765 mmHg 82%
    19:00 +12°C° 0 mm 2 mps 765 mmHg 85%
    20:00 +10°C° 0 mm 2 mps 765 mmHg 88%
    21:00 +9°C° 0 mm 2 mps 765 mmHg 91%
    22:00 +8°C° 0 mm 2 mps 765 mmHg 90%
    23:00 +8°C° 0 mm 2 mps 765 mmHg 90%

    22 March, Friday

    Time Temperature Precipitation Wind Pressure Humidity
    00:00 +9°C° 0 mm 1 mps 764 mmHg 90%
    01:00 +9°C° 0 mm 1 mps 764 mmHg 91%
    02:00 +8°C° 0 mm 1 mps 764 mmHg 91%
    03:00 +8°C° 0 mm 1 mps 763 mmHg 91%
    04:00 +8°C° 0 mm 1 mps 763 mmHg 91%
    05:00 +8°C° 0 mm 1 mps 763 mmHg 91%
    06:00 +7°C° 0 mm 1 mps 763 mmHg 91%
    07:00 +9°C° 0 mm 1 mps 763 mmHg 84%
    08:00 +11°C° 0 mm 1 mps 762 mmHg 78%
    09:00 +13°C° 0 mm 2 mps 762 mmHg 71%
    10:00 +14°C° 0 mm 2 mps 762 mmHg 64%
    11:00 +15°C° 0 mm 2 mps 762 mmHg 58%
    12:00 +16°C° 0 mm 2 mps 762 mmHg 51%
    13:00 +17°C° 0 mm 2 mps 761 mmHg 50%
    14:00 +17°C° 0 mm 2 mps 761 mmHg 49%
    15:00 +17°C° 0 mm 2 mps 760 mmHg 49%
    16:00 +16°C° 0 mm 1 mps 760 mmHg 56%
    17:00 +14°C° 0 mm 1 mps 760 mmHg 63%
    18:00 +12°C° 0 mm 1 mps 760 mmHg 70%
    19:00 +11°C° 0 mm 1 mps 761 mmHg 75%
    20:00 +10°C° 0 mm 1 mps 761 mmHg 80%
    21:00 +9°C° 0 mm 1 mps 761 mmHg 85%
    22:00 +9°C° 0 mm 1 mps 761 mmHg 86%
    23:00 +9°C° 0 mm 1 mps 761 mmHg 87%

    23 March, Saturday

    Time Temperature Precipitation Wind Pressure Humidity
    00:00 +8°C° 0 mm 1 mps 761 mmHg 88%
    01:00 +8°C° 0 mm 1 mps 761 mmHg 88%
    02:00 +8°C° 0 mm 1 mps 761 mmHg 88%
    03:00 +8°C° 0 mm 1 mps 761 mmHg 88%
    04:00 +7°C° 0 mm 1 mps 761 mmHg 88%
    05:00 +7°C° 0 mm 1 mps 761 mmHg 89%
    06:00 +7°C° 0 mm 1 mps 761 mmHg 89%
    07:00 +9°C° 0 mm 1 mps 762 mmHg 84%
    08:00 +10°C° 0 mm 1 mps 762 mmHg 80%
    09:00 +12°C° 0 mm 1 mps 762 mmHg 75%
    10:00 +13°C° 0 mm 1 mps 762 mmHg 71%
    11:00 +15°C° 0 mm 1 mps 762 mmHg 67%
    12:00 +16°C° 0 mm 1 mps 762 mmHg 63%
    13:00 +15°C° 0 mm 1 mps 761 mmHg 65%
    14:00 +15°C° 0 mm 2 mps 761 mmHg 68%
    15:00 +15°C° 0 mm 2 mps 761 mmHg 70%
    16:00 +14°C° 0.1 mm 2 mps 761 mmHg 76%
    17:00 +13°C° 0.1 mm 2 mps 761 mmHg 81%
    18:00 +12°C° 0.1 mm 2 mps 761 mmHg 87%
    19:00 +12°C° 0.1 mm 2 mps 761 mmHg 89%
    20:00 +10°C° 0.1 mm 2 mps 761 mmHg 91%
    21:00 +9°C° 0.1 mm 2 mps 761 mmHg 94%
    22:00 +9°C° 0 mm 2 mps 761 mmHg 94%
    23:00 +9°C° 0 mm 2 mps 761 mmHg 94%

    24 March, Sunday

    Time Temperature Precipitation Wind Pressure Humidity
    00:00 +9°C° 0 mm 2 mps 761 mmHg 94%
    01:00 +8°C° 0 mm 2 mps 761 mmHg 94%
    02:00 +8°C° 0 mm 2 mps 761 mmHg 95%
    03:00 +7°C° 0 mm 2 mps 761 mmHg 96%
    04:00 +7°C° 0 mm 2 mps 761 mmHg 96%
    05:00 +7°C° 0 mm 2 mps 761 mmHg 96%
    06:00 +7°C° 0 mm 3 mps 761 mmHg 97%
    07:00 +8°C° 0 mm 3 mps 762 mmHg 94%
    08:00 +8°C° 0 mm 3 mps 762 mmHg 91%
    09:00 +8°C° 0 mm 4 mps 763 mmHg 88%
    10:00 +10°C° 0 mm 4 mps 763 mmHg 85%
    11:00 +10°C° 0 mm 4 mps 763 mmHg 82%
    12:00 +11°C° 0 mm 4 mps 763 mmHg 79%
    13:00 +11°C° 0 mm 4 mps 763 mmHg 77%
    14:00 +11°C° 0 mm 4 mps 763 mmHg 75%
    15:00 +10°C° 0 mm 5 mps 763 mmHg 73%
    16:00 +10°C° 0 mm 4 mps 763 mmHg 75%
    17:00 +8°C° 0 mm 4 mps 764 mmHg 77%
    18:00 +7°C° 0 mm 3 mps 764 mmHg 79%
    19:00 +7°C° 0 mm 3 mps 765 mmHg 82%
    20:00 +6°C° 0 mm 2 mps 765 mmHg 85%
    21:00 +5°C° 0 mm 2 mps 766 mmHg 87%
    22:00 +5°C° 0 mm 2 mps 766 mmHg 87%
    23:00 +5°C° 0 mm 2 mps 766 mmHg 87%
    Show more